Time,TemperatureF,DewpointF,PressureIn,WindDirection,WindDirectionDegrees,WindSpeedMPH,WindSpeedGustMPH,Humidity,HourlyPrecipIn,Conditions,Clouds,dailyrainin,SoftwareType,DateUTC
2013-06-14 00:00:00,52.6,47.6,29.80,WSW,245,11.5,11.5,83,0.00,CLR,,0.00,WeatherDisplay:10.37,2013-06-13 23:00:00,
2013-06-14 00:05:00,52.6,47.9,29.81,WSW,254,10.4,10.4,84,0.00,CLR,,0.00,WeatherDisplay:10.37,2013-06-13 23:05:00,
2013-06-14 00:10:00,52.1,47.7,29.81,WSW,250,9.2,9.2,85,0.00,CLR,,0.00,WeatherDisplay:10.37,2013-06-13 23:10:00,
2013-06-14 00:15:00,52.0,47.6,29.81,West,259,10.4,10.4,85,0.00,CLR,,0.00,WeatherDisplay:10.37,2013-06-13 23:15:00,
2013-06-14 00:20:00,51.9,47.8,29.81,WSW,242,11.5,11.5,86,0.00,CLR,,0.00,WeatherDisplay:10.37,2013-06-13 23:20:00,
2013-06-14 00:26:00,51.8,47.7,29.81,WSW,249,11.5,11.5,86,0.00,CLR,,0.00,WeatherDisplay:10.37,2013-06-13 23:26:00,
2013-06-14 00:31:00,51.8,47.7,29.81,WSW,244,12.7,12.7,86,0.00,CLR,,0.00,WeatherDisplay:10.37,2013-06-13 23:31:00,
2013-06-14 00:37:00,52.0,47.6,29.81,West,271,13.8,13.8,85,0.00,CLR,,0.00,WeatherDisplay:10.37,2013-06-13 23:37:00,
2013-06-14 00:42:00,52.1,47.7,29.81,WSW,253,15.0,15.0,85,0.00,CLR,,0.00,WeatherDisplay:10.37,2013-06-13 23:42:00,
2013-06-14 00:48:00,52.1,47.4,29.81,WSW,245,15.0,15.0,84,0.00,CLR,,0.00,WeatherDisplay:10.37,2013-06-13 23:48:00,
2013-06-14 00:53:00,52.1,47.4,29.81,WSW,254,11.5,11.5,84,0.00,CLR,,0.00,WeatherDisplay:10.37,2013-06-13 23:53:00,
2013-06-14 00:58:00,52.0,47.6,29.81,West,259,11.5,11.5,85,0.00,CLR,,0.00,WeatherDisplay:10.37,2013-06-13 23:58:00,
2013-06-14 01:03:00,52.1,47.7,29.81,WSW,252,11.5,11.5,85,0.00,CLR,,0.00,WeatherDisplay:10.37,2013-06-14 00:03:00,
2013-06-14 01:08:00,52.2,47.5,29.81,WSW,252,11.5,11.5,84,0.00,CLR,,0.00,WeatherDisplay:10.37,2013-06-14 00:08:00,
2013-06-14 01:13:00,52.1,47.4,29.81,WSW,243,10.4,10.4,84,0.00,CLR,,0.00,WeatherDisplay:10.37,2013-06-14 00:13:00,
2013-06-14 01:18:00,51.9,47.5,29.82,WSW,247,10.0,10.0,85,0.00,CLR,,0.00,WeatherDisplay:10.37,2013-06-14 00:18:00,
2013-06-14 01:23:00,51.8,47.4,29.81,WSW,247,10.4,10.4,85,0.00,CLR,,0.00,WeatherDisplay:10.37,2013-06-14 00:23:00,
2013-06-14 01:28:00,51.7,47.3,29.82,WSW,253,9.2,9.2,85,0.00,CLR,,0.00,WeatherDisplay:10.37,2013-06-14 00:28:00,
2013-06-14 01:34:00,51.7,47.6,29.82,WSW,245,8.1,8.1,86,0.00,CLR,,0.00,WeatherDisplay:10.37,2013-06-14 00:34:00,
2013-06-14 01:39:00,51.5,47.5,29.82,WSW,243,6.9,6.9,86,0.00,CLR,,0.00,WeatherDisplay:10.37,2013-06-14 00:39:00,
2013-06-14 01:44:00,51.4,47.4,29.82,WSW,243,6.0,6.0,86,0.00,CLR,,0.00,WeatherDisplay:10.37,2013-06-14 00:44:00,
2013-06-14 01:49:00,51.2,47.2,29.82,SW,228,7.0,7.0,86,0.00,CLR,,0.00,WeatherDisplay:10.37,2013-06-14 00:49:00,
2013-06-14 01:54:00,50.9,46.9,29.82,WSW,249,6.9,6.9,86,0.00,CLR,,0.00,WeatherDisplay:10.37,2013-06-14 00:54:00,
2013-06-14 01:59:00,50.8,46.8,29.82,WSW,247,8.1,8.1,86,0.00,CLR,,0.00,WeatherDisplay:10.37,2013-06-14 00:59:00,
2013-06-14 02:04:00,50.7,46.7,29.82,WSW,254,5.8,5.8,86,0.00,CLR,,0.00,WeatherDisplay:10.37,2013-06-14 01:04:00,
2013-06-14 02:09:00,50.6,46.6,29.82,WSW,250,6.0,6.0,86,0.00,CLR,,0.00,WeatherDisplay:10.37,2013-06-14 01:09:00,
2013-06-14 02:14:00,50.5,46.8,29.81,WSW,254,6.9,6.9,87,0.00,CLR,,0.00,WeatherDisplay:10.37,2013-06-14 01:14:00,
2013-06-14 02:20:00,50.5,46.8,29.81,WSW,249,6.9,6.9,87,0.00,CLR,,0.00,WeatherDisplay:10.37,2013-06-14 01:20:00,
2013-06-14 02:25:00,50.5,47.1,29.81,WSW,252,6.9,6.9,88,0.00,CLR,,0.00,WeatherDisplay:10.37,2013-06-14 01:25:00,
2013-06-14 02:31:00,50.4,47.0,29.81,WSW,250,6.0,6.1,88,0.00,CLR,,0.00,WeatherDisplay:10.37,2013-06-14 01:31:00,
2013-06-14 02:36:00,50.4,47.0,29.81,WSW,252,6.9,6.9,88,0.00,CLR,,0.00,WeatherDisplay:10.37,2013-06-14 01:36:00,
2013-06-14 02:41:00,50.6,47.2,29.81,WSW,257,10.4,10.4,88,0.00,CLR,,0.00,WeatherDisplay:10.37,2013-06-14 01:41:00,
2013-06-14 02:46:00,50.8,47.4,29.81,WSW,238,10.4,10.4,88,0.00,CLR,,0.00,WeatherDisplay:10.37,2013-06-14 01:46:00,
2013-06-14 02:51:00,51.0,47.6,29.81,SW,226,10.4,10.4,88,0.00,CLR,,0.00,WeatherDisplay:10.37,2013-06-14 01:51:00,
2013-06-14 02:57:00,51.0,47.6,29.81,SW,232,10.0,10.0,88,0.00,CLR,,0.00,WeatherDisplay:10.37,2013-06-14 01:57:00,
2013-06-14 03:02:00,51.1,47.7,29.81,WSW,238,12.0,12.0,88,0.00,CLR,,0.00,WeatherDisplay:10.37,2013-06-14 02:02:00,
2013-06-14 03:07:00,51.1,47.7,29.81,WSW,257,11.5,11.5,88,0.00,CLR,,0.00,WeatherDisplay:10.37,2013-06-14 02:07:00,
2013-06-14 03:12:00,51.0,47.9,29.81,SW,231,10.4,10.4,89,0.00,CLR,,0.00,WeatherDisplay:10.37,2013-06-14 02:12:00,
2013-06-14 03:17:00,50.9,47.8,29.81,SW,232,11.5,11.5,89,0.00,CLR,,0.00,WeatherDisplay:10.37,2013-06-14 02:17:00,
2013-06-14 03:22:00,50.8,47.7,29.81,WSW,247,9.2,9.2,89,0.00,CLR,,0.00,WeatherDisplay:10.37,2013-06-14 02:22:00,
2013-06-14 03:27:00,50.8,47.7,29.81,SW,235,11.0,11.0,89,0.00,CLR,,0.00,WeatherDisplay:10.37,2013-06-14 02:27:00,
2013-06-14 03:32:00,50.8,47.7,29.82,WSW,244,11.5,11.5,89,0.00,CLR,,0.00,WeatherDisplay:10.37,2013-06-14 02:32:00,
2013-06-14 03:37:00,50.9,47.5,29.81,WSW,250,8.1,8.1,88,0.00,CLR,,0.00,WeatherDisplay:10.37,2013-06-14 02:37:00,
2013-06-14 03:42:00,50.8,47.4,29.81,WSW,252,8.1,8.1,88,0.00,CLR,,0.00,WeatherDisplay:10.37,2013-06-14 02:42:00,
2013-06-14 03:47:00,50.8,47.1,29.81,WSW,245,8.1,8.1,87,0.00,CLR,,0.00,WeatherDisplay:10.37,2013-06-14 02:47:00,
2013-06-14 03:52:00,50.8,47.1,29.81,WSW,250,6.9,6.9,87,0.00,CLR,,0.00,WeatherDisplay:10.37,2013-06-14 02:52:00,
2013-06-14 03:57:00,50.8,47.1,29.81,WSW,253,7.0,7.0,87,0.00,CLR,,0.00,WeatherDisplay:10.37,2013-06-14 02:57:00,
2013-06-14 04:03:00,50.7,47.3,29.81,WSW,254,8.1,8.1,88,0.00,CLR,,0.00,WeatherDisplay:10.37,2013-06-14 03:03:00,
2013-06-14 04:08:00,50.6,47.2,29.81,WSW,254,11.5,11.5,88,0.00,CLR,,0.00,WeatherDisplay:10.37,2013-06-14 03:08:00,
2013-06-14 04:13:00,50.7,47.3,29.81,WSW,246,9.2,9.2,88,0.00,CLR,,0.00,WeatherDisplay:10.37,2013-06-14 03:13:00,
2013-06-14 04:18:00,50.8,47.4,29.81,WSW,247,9.2,9.2,88,0.00,CLR,,0.00,WeatherDisplay:10.37,2013-06-14 03:18:00,
2013-06-14 04:24:00,50.8,47.4,29.81,SW,226,8.1,8.1,88,0.00,CLR,,0.00,WeatherDisplay:10.37,2013-06-14 03:24:00,
2013-06-14 04:29:00,50.8,47.4,29.81,WSW,238,9.2,9.2,88,0.00,CLR,,0.00,WeatherDisplay:10.37,2013-06-14 03:29:00,
2013-06-14 04:34:00,50.8,47.4,29.81,SSW,211,9.2,9.2,88,0.00,CLR,,0.00,WeatherDisplay:10.37,2013-06-14 03:34:00,
2013-06-14 04:39:00,50.9,47.2,29.81,WSW,246,11.5,11.5,87,0.00,CLR,,0.00,WeatherDisplay:10.37,2013-06-14 03:39:00,
2013-06-14 04:44:00,50.8,47.1,29.81,WSW,243,8.1,8.1,87,0.00,CLR,,0.00,WeatherDisplay:10.37,2013-06-14 03:44:00,
2013-06-14 04:49:00,50.7,47.0,29.81,SW,222,6.9,6.9,87,0.00,CLR,,0.00,WeatherDisplay:10.37,2013-06-14 03:49:00,
2013-06-14 04:54:00,50.6,47.2,29.81,SW,216,5.8,5.8,88,0.00,CLR,,0.00,WeatherDisplay:10.37,2013-06-14 03:54:00,
2013-06-14 04:59:00,50.6,47.2,29.81,WSW,237,7.0,7.0,88,0.00,CLR,,0.00,WeatherDisplay:10.37,2013-06-14 03:59:00,
2013-06-14 05:01:00,50.6,47.2,29.81,SW,229,10.0,10.0,88,0.00,CLR,,0.00,WeatherDisplay:10.37,2013-06-14 04:01:00,
2013-06-14 05:06:00,50.6,46.9,29.81,SW,229,9.2,9.2,87,0.00,CLR,,0.00,WeatherDisplay:10.37,2013-06-14 04:06:00,
2013-06-14 05:11:00,50.5,46.8,29.81,SW,216,9.2,9.2,87,0.00,CLR,,0.00,WeatherDisplay:10.37,2013-06-14 04:11:00,
2013-06-14 05:16:00,50.6,47.2,29.81,WSW,242,8.1,8.1,88,0.00,CLR,,0.00,WeatherDisplay:10.37,2013-06-14 04:16:00,
2013-06-14 05:21:00,50.6,46.9,29.81,WSW,242,9.2,9.2,87,0.00,CLR,,0.00,WeatherDisplay:10.37,2013-06-14 04:21:00,
2013-06-14 05:26:00,50.7,47.0,29.81,WSW,238,9.2,9.2,87,0.00,CLR,,0.00,WeatherDisplay:10.37,2013-06-14 04:26:00,
2013-06-14 05:31:00,50.8,47.1,29.81,WSW,238,6.9,6.9,87,0.00,CLR,,0.00,WeatherDisplay:10.37,2013-06-14 04:31:00,
2013-06-14 05:36:00,50.9,47.2,29.81,SW,235,5.8,5.8,87,0.00,CLR,,0.00,WeatherDisplay:10.37,2013-06-14 04:36:00,
2013-06-14 05:41:00,50.9,47.2,29.81,SW,236,4.0,4.0,87,0.00,CLR,,0.00,WeatherDisplay:10.37,2013-06-14 04:41:00,
2013-06-14 05:46:00,51.0,47.3,29.82,SW,220,4.6,4.6,87,0.00,CLR,,0.00,WeatherDisplay:10.37,2013-06-14 04:46:00,
2013-06-14 05:52:00,51.2,47.5,29.81,SW,233,4.0,4.0,87,0.00,CLR,,0.00,WeatherDisplay:10.37,2013-06-14 04:52:00,
2013-06-14 05:57:00,51.2,47.2,29.81,SSW,194,5.0,5.0,86,0.00,CLR,,0.00,WeatherDisplay:10.37,2013-06-14 04:57:00,
2013-06-14 06:02:00,51.6,47.5,29.82,WSW,250,8.1,8.1,86,0.00,CLR,,0.00,WeatherDisplay:10.37,2013-06-14 05:02:00,
2013-06-14 06:07:00,51.6,47.5,29.82,WSW,254,4.0,4.0,86,0.00,CLR,,0.00,WeatherDisplay:10.37,2013-06-14 05:07:00,
2013-06-14 06:12:00,51.7,47.6,29.82,WSW,253,3.5,3.5,86,0.00,CLR,,0.00,WeatherDisplay:10.37,2013-06-14 05:12:00,
2013-06-14 06:18:00,52.0,47.6,29.81,WNW,288,4.0,4.0,85,0.00,CLR,,0.00,WeatherDisplay:10.37,2013-06-14 05:18:00,
2013-06-14 06:23:00,52.0,47.6,29.81,West,259,2.3,2.3,85,0.00,CLR,,0.00,WeatherDisplay:10.37,2013-06-14 05:23:00,
2013-06-14 06:28:00,52.2,47.8,29.81,WNW,290,1.2,1.2,85,0.00,CLR,,0.00,WeatherDisplay:10.37,2013-06-14 05:28:00,
2013-06-14 06:33:00,52.8,48.4,29.81,SE,133,3.5,3.5,85,0.00,CLR,,0.00,WeatherDisplay:10.37,2013-06-14 05:33:00,
2013-06-14 06:38:00,53.4,48.4,29.81,WSW,240,2.3,2.3,83,0.00,CLR,,0.00,WeatherDisplay:10.37,2013-06-14 05:38:00,
2013-06-14 06:43:00,53.9,48.9,29.81,South,189,3.5,3.5,83,0.00,CLR,,0.00,WeatherDisplay:10.37,2013-06-14 05:43:00,
2013-06-14 06:48:00,54.1,48.7,29.81,SW,219,1.2,1.2,82,0.00,CLR,,0.00,WeatherDisplay:10.37,2013-06-14 05:48:00,
2013-06-14 06:53:00,54.4,48.7,29.81,SW,224,1.2,0.0,81,0.00,CLR,,0.00,WeatherDisplay:10.37,2013-06-14 05:53:00,
2013-06-14 06:58:00,54.3,48.3,29.81,West,269,1.2,0.0,80,0.00,CLR,,0.00,WeatherDisplay:10.37,2013-06-14 05:58:00,
2013-06-14 07:03:00,54.1,48.1,29.81,West,266,2.3,2.3,80,0.00,CLR,,0.00,WeatherDisplay:10.37,2013-06-14 06:03:00,
2013-06-14 07:08:00,53.9,48.2,29.81,WSW,239,3.5,3.5,81,0.00,CLR,,0.00,WeatherDisplay:10.37,2013-06-14 06:08:00,
2013-06-14 07:13:00,53.7,48.0,29.81,WSW,240,2.3,2.3,81,0.00,CLR,,0.00,WeatherDisplay:10.37,2013-06-14 06:13:00,
2013-06-14 07:18:00,53.6,47.9,29.81,WSW,239,3.5,3.5,81,0.00,CLR,,0.00,WeatherDisplay:10.37,2013-06-14 06:18:00,
2013-06-14 07:23:00,53.4,47.4,29.81,SSW,207,3.5,3.5,80,0.00,CLR,,0.00,WeatherDisplay:10.37,2013-06-14 06:23:00,
2013-06-14 07:28:00,53.5,47.5,29.81,ESE,119,2.3,2.3,80,0.00,CLR,,0.00,WeatherDisplay:10.37,2013-06-14 06:28:00,
2013-06-14 07:33:00,53.3,47.3,29.81,SW,216,3.5,3.5,80,0.00,CLR,,0.00,WeatherDisplay:10.37,2013-06-14 06:33:00,
2013-06-14 07:38:00,53.3,47.6,29.80,WSW,243,1.2,1.2,81,0.00,CLR,,0.00,WeatherDisplay:10.37,2013-06-14 06:38:00,
2013-06-14 07:43:00,53.3,47.3,29.80,WSW,243,1.2,0.0,80,0.00,CLR,,0.00,WeatherDisplay:10.37,2013-06-14 06:43:00,
2013-06-14 07:48:00,53.3,47.3,29.80,ESE,105,2.3,2.3,80,0.00,CLR,,0.00,WeatherDisplay:10.37,2013-06-14 06:48:00,
2013-06-14 07:53:00,53.0,47.0,29.80,East,96,1.2,0.0,80,0.00,CLR,,0.00,WeatherDisplay:10.37,2013-06-14 06:53:00,
2013-06-14 07:58:00,53.1,47.1,29.80,NW,305,1.2,1.2,80,0.00,CLR,,0.00,WeatherDisplay:10.37,2013-06-14 06:58:00,
2013-06-14 08:03:00,53.1,47.1,29.80,ENE,71,2.3,2.3,80,0.00,CLR,,0.00,WeatherDisplay:10.37,2013-06-14 07:03:00,
2013-06-14 08:08:00,52.9,46.9,29.80,ESE,105,3.5,3.5,80,0.00,CLR,,0.00,WeatherDisplay:10.37,2013-06-14 07:08:00,
2013-06-14 08:13:00,52.7,47.4,29.81,East,86,3.5,3.5,82,0.00,CLR,,0.00,WeatherDisplay:10.37,2013-06-14 07:13:00,
2013-06-14 08:18:00,52.6,47.6,29.81,SE,131,3.5,3.5,83,0.00,CLR,,0.00,WeatherDisplay:10.37,2013-06-14 07:18:00,
2013-06-14 08:23:00,52.7,48.0,29.81,WSW,254,2.3,2.3,84,0.00,CLR,,0.00,WeatherDisplay:10.37,2013-06-14 07:23:00,
2013-06-14 08:28:00,52.8,48.1,29.80,SW,234,4.6,4.6,84,0.00,CLR,,0.00,WeatherDisplay:10.37,2013-06-14 07:28:00,
2013-06-14 08:33:00,52.8,48.4,29.81,SSW,208,11.5,11.5,85,0.00,CLR,,0.00,WeatherDisplay:10.37,2013-06-14 07:33:00,
2013-06-14 08:38:00,52.8,48.7,29.80,SSW,204,8.1,8.1,86,0.00,CLR,,0.00,WeatherDisplay:10.37,2013-06-14 07:38:00,
2013-06-14 08:43:00,52.7,48.6,29.80,WSW,246,5.8,5.8,86,0.00,CLR,,0.00,WeatherDisplay:10.37,2013-06-14 07:43:00,
2013-06-14 08:48:00,52.8,49.0,29.80,ESE,118,4.0,4.0,87,0.00,CLR,,0.00,WeatherDisplay:10.37,2013-06-14 07:48:00,
2013-06-14 08:53:00,53.0,49.2,29.80,SW,221,4.6,4.6,87,0.00,CLR,,0.00,WeatherDisplay:10.37,2013-06-14 07:53:00,
2013-06-14 08:59:00,53.2,49.1,29.80,SSW,204,5.8,5.8,86,0.00,CLR,,0.00,WeatherDisplay:10.37,2013-06-14 07:59:00,
2013-06-14 09:04:00,53.4,49.6,29.80,SSE,162,4.6,4.6,87,0.00,CLR,,0.00,WeatherDisplay:10.37,2013-06-14 08:04:00,
2013-06-14 09:09:00,53.4,49.3,29.80,SSW,195,3.5,3.5,86,0.00,CLR,,0.00,WeatherDisplay:10.37,2013-06-14 08:09:00,
2013-06-14 09:14:00,53.6,49.2,29.80,WSW,240,6.0,6.0,85,0.00,CLR,,0.00,WeatherDisplay:10.37,2013-06-14 08:14:00,
2013-06-14 09:19:00,53.7,49.0,29.80,SSW,203,4.6,4.6,84,0.00,CLR,,0.00,WeatherDisplay:10.37,2013-06-14 08:19:00,
2013-06-14 09:24:00,53.8,49.1,29.80,SW,220,4.6,4.6,84,0.00,CLR,,0.00,WeatherDisplay:10.37,2013-06-14 08:24:00,
2013-06-14 09:29:00,54.0,49.3,29.79,WSW,251,3.5,3.5,84,0.00,CLR,,0.00,WeatherDisplay:10.37,2013-06-14 08:29:00,
2013-06-14 09:34:00,54.1,49.7,29.79,WSW,244,0.0,0.0,85,0.00,CLR,,0.00,WeatherDisplay:10.37,2013-06-14 08:34:00,
2013-06-14 09:39:00,54.3,49.6,29.79,SW,214,2.3,2.3,84,0.00,CLR,,0.00,WeatherDisplay:10.37,2013-06-14 08:39:00,
2013-06-14 09:44:00,54.4,49.3,29.79,SW,218,3.5,3.5,83,0.00,CLR,,0.00,WeatherDisplay:10.37,2013-06-14 08:44:00,
2013-06-14 09:50:00,54.7,49.0,29.79,SW,231,2.3,2.3,81,0.00,CLR,,0.00,WeatherDisplay:10.37,2013-06-14 08:50:00,
2013-06-14 09:55:00,54.9,49.2,29.79,SW,226,3.5,3.5,81,0.00,CLR,,0.00,WeatherDisplay:10.37,2013-06-14 08:55:00,
2013-06-14 10:00:00,54.9,48.8,29.79,SW,233,11.5,11.5,80,0.00,CLR,,0.00,WeatherDisplay:10.37,2013-06-14 09:00:00,
2013-06-14 10:05:00,54.7,48.3,29.79,WSW,243,9.2,9.2,79,0.00,CLR,,0.00,WeatherDisplay:10.37,2013-06-14 09:05:00,
2013-06-14 10:10:00,54.8,48.4,29.79,SSW,209,8.1,8.1,79,0.00,CLR,,0.00,WeatherDisplay:10.37,2013-06-14 09:10:00,
2013-06-14 10:15:00,54.8,48.4,29.79,WSW,243,8.0,8.0,79,0.00,CLR,,0.00,WeatherDisplay:10.37,2013-06-14 09:15:00,
2013-06-14 10:20:00,54.9,48.8,29.79,WSW,238,6.9,6.9,80,0.00,CLR,,0.00,WeatherDisplay:10.37,2013-06-14 09:20:00,
2013-06-14 10:25:00,55.1,48.7,29.79,SW,235,8.1,8.1,79,0.00,CLR,,0.00,WeatherDisplay:10.37,2013-06-14 09:25:00,
2013-06-14 10:30:00,55.1,48.7,29.78,SW,230,5.8,5.8,79,0.00,CLR,,0.00,WeatherDisplay:10.37,2013-06-14 09:30:00,
2013-06-14 10:35:00,55.2,48.8,29.78,SW,216,8.0,8.0,79,0.00,CLR,,0.00,WeatherDisplay:10.37,2013-06-14 09:35:00,
2013-06-14 10:40:00,55.5,49.1,29.78,WSW,250,12.7,12.7,79,0.00,CLR,,0.00,WeatherDisplay:10.37,2013-06-14 09:40:00,
2013-06-14 10:45:00,55.6,49.2,29.78,SW,216,10.4,10.4,79,0.00,CLR,,0.00,WeatherDisplay:10.37,2013-06-14 09:45:00,
2013-06-14 10:50:00,55.7,49.3,29.78,SW,228,12.7,12.7,79,0.00,CLR,,0.00,WeatherDisplay:10.37,2013-06-14 09:50:00,
2013-06-14 10:55:00,55.8,49.4,29.78,SW,224,18.0,18.0,79,0.00,CLR,,0.00,WeatherDisplay:10.37,2013-06-14 09:55:00,
2013-06-14 11:00:00,56.0,49.6,29.78,SW,234,15.0,15.0,79,0.00,CLR,,0.00,WeatherDisplay:10.37,2013-06-14 10:00:00,
2013-06-14 11:05:00,56.2,49.8,29.78,SW,215,19.6,19.6,79,0.00,CLR,,0.00,WeatherDisplay:10.37,2013-06-14 10:05:00,
2013-06-14 11:10:00,56.4,50.0,29.78,SSW,201,13.0,13.0,79,0.00,CLR,,0.00,WeatherDisplay:10.37,2013-06-14 10:10:00,
2013-06-14 11:15:00,56.7,50.3,29.78,SSE,163,13.8,13.8,79,0.00,CLR,,0.00,WeatherDisplay:10.37,2013-06-14 10:15:00,
2013-06-14 11:19:00,56.9,50.5,29.78,South,181,9.2,9.2,79,0.00,CLR,,0.00,WeatherDisplay:10.37,2013-06-14 10:19:00,
2013-06-14 11:24:00,57.0,50.5,29.78,SW,224,11.5,11.5,79,0.00,CLR,,0.00,WeatherDisplay:10.37,2013-06-14 10:24:00,
2013-06-14 11:29:00,57.0,50.2,29.78,South,191,15.0,15.0,78,0.00,CLR,,0.00,WeatherDisplay:10.37,2013-06-14 10:29:00,
2013-06-14 11:34:00,56.9,50.1,29.78,SW,217,16.1,16.1,78,0.00,CLR,,0.00,WeatherDisplay:10.37,2013-06-14 10:34:00,
2013-06-14 11:39:00,56.9,50.5,29.78,SSW,198,13.8,13.8,79,0.00,CLR,,0.00,WeatherDisplay:10.37,2013-06-14 10:39:00,
2013-06-14 11:44:00,57.0,50.5,29.78,South,174,13.8,13.8,79,0.00,CLR,,0.00,WeatherDisplay:10.37,2013-06-14 10:44:00,
2013-06-14 11:49:00,57.1,50.6,29.78,South,176,13.8,13.8,79,0.00,CLR,,0.00,WeatherDisplay:10.37,2013-06-14 10:49:00,
2013-06-14 11:54:00,57.3,50.8,29.78,SSW,195,11.5,11.5,79,0.00,CLR,,0.00,WeatherDisplay:10.37,2013-06-14 10:54:00,
2013-06-14 11:59:00,57.4,50.6,29.77,SSW,193,17.3,17.3,78,0.00,CLR,,0.00,WeatherDisplay:10.37,2013-06-14 10:59:00,
2013-06-14 12:04:00,57.4,50.9,29.77,SSW,211,11.5,11.5,79,0.00,CLR,,0.00,WeatherDisplay:10.37,2013-06-14 11:04:00,
2013-06-14 12:09:00,57.6,51.1,29.77,SSE,153,9.2,9.2,79,0.00,CLR,,0.00,WeatherDisplay:10.37,2013-06-14 11:09:00,
2013-06-14 12:14:00,57.7,51.2,29.77,SSW,200,11.0,11.0,79,0.00,CLR,,0.00,WeatherDisplay:10.37,2013-06-14 11:14:00,
2013-06-14 12:19:00,57.9,51.1,29.77,SW,230,7.0,7.0,78,0.00,CLR,,0.00,WeatherDisplay:10.37,2013-06-14 11:19:00,
2013-06-14 12:24:00,58.0,51.2,29.77,SW,225,11.5,11.5,78,0.00,CLR,,0.00,WeatherDisplay:10.37,2013-06-14 11:24:00,
2013-06-14 12:29:00,58.1,50.9,29.76,WSW,239,16.1,16.1,77,0.00,CLR,,0.00,WeatherDisplay:10.37,2013-06-14 11:29:00,
2013-06-14 12:34:00,58.0,51.5,29.76,SW,230,13.8,13.8,79,0.00,CLR,,0.00,WeatherDisplay:10.37,2013-06-14 11:34:00,
2013-06-14 12:39:00,57.8,51.0,29.76,WSW,243,11.5,11.5,78,0.00,CLR,,0.00,WeatherDisplay:10.37,2013-06-14 11:39:00,
2013-06-14 12:44:00,58.0,51.2,29.76,SW,235,15.0,15.0,78,0.00,CLR,,0.00,WeatherDisplay:10.37,2013-06-14 11:44:00,
2013-06-14 12:49:00,57.7,51.6,29.76,WSW,238,10.4,10.4,80,0.00,CLR,,0.00,WeatherDisplay:10.37,2013-06-14 11:49:00,
2013-06-14 12:54:00,57.8,51.7,29.75,SW,219,9.2,9.2,80,0.00,CLR,,0.00,WeatherDisplay:10.37,2013-06-14 11:54:00,
2013-06-14 12:59:00,57.8,51.3,29.75,WSW,247,11.5,11.5,79,0.00,CLR,,0.00,WeatherDisplay:10.37,2013-06-14 11:59:00,
2013-06-14 13:04:00,57.8,51.7,29.75,WSW,239,15.0,15.0,80,0.00,CLR,,0.00,WeatherDisplay:10.37,2013-06-14 12:04:00,
2013-06-14 13:09:00,57.9,51.8,29.75,WSW,245,13.8,13.8,80,0.00,CLR,,0.00,WeatherDisplay:10.37,2013-06-14 12:09:00,
2013-06-14 13:14:00,58.1,51.6,29.75,SW,218,17.3,17.3,79,0.00,CLR,,0.00,WeatherDisplay:10.37,2013-06-14 12:14:00,
2013-06-14 13:19:00,58.3,51.8,29.74,WSW,239,11.5,11.5,79,0.00,CLR,,0.00,WeatherDisplay:10.37,2013-06-14 12:19:00,
2013-06-14 13:24:00,58.8,51.6,29.74,SSW,207,17.3,17.3,77,0.00,CLR,,0.00,WeatherDisplay:10.37,2013-06-14 12:24:00,
2013-06-14 13:29:00,58.7,51.5,29.74,SW,228,17.3,17.3,77,0.00,CLR,,0.00,WeatherDisplay:10.37,2013-06-14 12:29:00,
2013-06-14 13:34:00,58.7,51.5,29.73,SW,233,12.7,12.7,77,0.00,CLR,,0.00,WeatherDisplay:10.37,2013-06-14 12:34:00,
2013-06-14 13:39:00,58.5,51.3,29.73,SW,216,13.8,13.8,77,0.00,CLR,,0.00,WeatherDisplay:10.37,2013-06-14 12:39:00,
2013-06-14 13:44:00,58.4,51.6,29.73,SW,225,11.5,11.5,78,0.00,CLR,,0.00,WeatherDisplay:10.37,2013-06-14 12:44:00,
2013-06-14 13:49:00,58.3,51.5,29.74,WSW,237,16.0,16.0,78,0.00,CLR,,0.00,WeatherDisplay:10.37,2013-06-14 12:49:00,
2013-06-14 13:54:00,58.3,51.8,29.73,WSW,246,11.5,11.5,79,0.00,CLR,,0.00,WeatherDisplay:10.37,2013-06-14 12:54:00,
2013-06-14 13:59:00,58.4,51.6,29.73,SW,233,11.5,11.5,78,0.00,CLR,,0.00,WeatherDisplay:10.37,2013-06-14 12:59:00,
2013-06-14 14:04:00,58.4,51.9,29.73,SSW,207,10.4,10.4,79,0.00,CLR,,0.00,WeatherDisplay:10.37,2013-06-14 13:04:00,
2013-06-14 14:09:00,58.5,51.3,29.73,SSW,204,13.8,13.8,77,0.00,CLR,,0.00,WeatherDisplay:10.37,2013-06-14 13:09:00,
2013-06-14 14:14:00,58.4,51.6,29.73,SW,226,14.0,14.0,78,0.00,CLR,,0.00,WeatherDisplay:10.37,2013-06-14 13:14:00,
2013-06-14 14:19:00,58.4,51.2,29.72,SW,219,16.1,16.1,77,0.00,CLR,,0.00,WeatherDisplay:10.37,2013-06-14 13:19:00,
2013-06-14 14:24:00,58.6,51.4,29.72,SW,233,11.5,11.5,77,0.00,CLR,,0.00,WeatherDisplay:10.37,2013-06-14 13:24:00,
2013-06-14 14:29:00,58.9,51.7,29.72,SW,219,13.8,13.8,77,0.00,CLR,,0.00,WeatherDisplay:10.37,2013-06-14 13:29:00,
2013-06-14 14:34:00,59.0,51.4,29.72,WSW,249,11.5,11.5,76,0.00,CLR,,0.00,WeatherDisplay:10.37,2013-06-14 13:34:00,
2013-06-14 14:39:00,59.1,51.5,29.72,SW,233,12.7,12.7,76,0.00,CLR,,0.00,WeatherDisplay:10.37,2013-06-14 13:39:00,
2013-06-14 14:44:00,59.0,51.8,29.72,SW,233,10.4,10.4,77,0.00,CLR,,0.00,WeatherDisplay:10.37,2013-06-14 13:44:00,
2013-06-14 14:49:00,58.9,51.7,29.72,SW,231,6.9,6.9,77,0.00,CLR,,0.00,WeatherDisplay:10.37,2013-06-14 13:49:00,
2013-06-14 14:54:00,58.8,51.6,29.72,SSW,207,13.8,13.8,77,0.00,CLR,,0.00,WeatherDisplay:10.37,2013-06-14 13:54:00,
2013-06-14 14:59:00,58.7,51.9,29.72,WSW,242,11.5,11.5,78,0.00,CLR,,0.00,WeatherDisplay:10.37,2013-06-14 13:59:00,
2013-06-14 15:04:00,58.6,52.1,29.72,SW,233,11.5,11.5,79,0.00,CLR,,0.00,WeatherDisplay:10.37,2013-06-14 14:04:00,
2013-06-14 15:09:00,58.6,52.1,29.72,SSW,205,12.7,12.7,79,0.00,CLR,,0.00,WeatherDisplay:10.37,2013-06-14 14:09:00,
2013-06-14 15:14:00,58.7,52.2,29.72,SW,228,11.5,11.5,79,0.00,CLR,,0.00,WeatherDisplay:10.37,2013-06-14 14:14:00,
2013-06-14 15:19:00,58.6,52.1,29.71,SW,226,8.0,8.0,79,0.00,CLR,,0.00,WeatherDisplay:10.37,2013-06-14 14:19:00,
2013-06-14 15:24:00,58.7,52.2,29.71,SW,234,6.9,6.9,79,0.00,CLR,,0.00,WeatherDisplay:10.37,2013-06-14 14:24:00,
2013-06-14 15:29:00,58.5,52.4,29.71,WSW,246,6.9,6.9,80,0.00,CLR,,0.00,WeatherDisplay:10.37,2013-06-14 14:29:00,
2013-06-14 15:34:00,58.7,52.5,29.71,WSW,247,5.8,5.8,80,0.00,CLR,,0.00,WeatherDisplay:10.37,2013-06-14 14:34:00,
2013-06-14 15:39:00,59.0,52.8,29.70,WSW,245,3.5,3.5,80,0.00,CLR,,0.00,WeatherDisplay:10.37,2013-06-14 14:39:00,
2013-06-14 15:44:00,59.2,52.7,29.70,WSW,245,3.5,3.5,79,0.00,CLR,,0.00,WeatherDisplay:10.37,2013-06-14 14:44:00,
2013-06-14 15:49:00,59.2,53.0,29.70,WSW,246,2.3,2.3,80,0.00,CLR,,0.00,WeatherDisplay:10.37,2013-06-14 14:49:00,
2013-06-14 15:54:00,59.4,53.2,29.70,West,268,2.0,2.0,80,0.00,CLR,,0.00,WeatherDisplay:10.37,2013-06-14 14:54:00,
2013-06-14 15:59:00,59.5,53.0,29.70,West,268,2.3,2.3,79,0.00,CLR,,0.00,WeatherDisplay:10.37,2013-06-14 14:59:00,
2013-06-14 16:04:00,59.9,53.0,29.70,WSW,254,2.3,2.3,78,0.00,CLR,,0.00,WeatherDisplay:10.37,2013-06-14 15:04:00,
2013-06-14 16:09:00,60.2,53.3,29.70,West,274,3.5,3.5,78,0.00,CLR,,0.00,WeatherDisplay:10.37,2013-06-14 15:09:00,
2013-06-14 16:14:00,60.4,53.5,29.69,West,280,3.5,3.5,78,0.00,CLR,,0.00,WeatherDisplay:10.37,2013-06-14 15:14:00,
2013-06-14 16:19:00,60.3,53.4,29.69,West,281,1.2,1.2,78,0.00,CLR,,0.00,WeatherDisplay:10.37,2013-06-14 15:19:00,
2013-06-14 16:24:00,60.7,53.8,29.69,West,279,1.2,1.2,78,0.00,CLR,,0.00,WeatherDisplay:10.37,2013-06-14 15:24:00,
2013-06-14 16:29:00,60.8,53.5,29.69,WSW,255,2.3,2.3,77,0.00,CLR,,0.00,WeatherDisplay:10.37,2013-06-14 15:29:00,
2013-06-14 16:34:00,60.4,53.2,29.69,SW,232,6.0,6.0,77,0.00,CLR,,0.00,WeatherDisplay:10.37,2013-06-14 15:34:00,
2013-06-14 16:39:00,60.4,53.2,29.69,SW,215,9.2,9.2,77,0.00,CLR,,0.00,WeatherDisplay:10.37,2013-06-14 15:39:00,
2013-06-14 16:44:00,60.3,53.1,29.69,SW,234,8.1,8.1,77,0.00,CLR,,0.00,WeatherDisplay:10.37,2013-06-14 15:44:00,
2013-06-14 16:49:00,60.5,53.3,29.69,SSE,160,6.9,6.9,77,0.00,CLR,,0.00,WeatherDisplay:10.37,2013-06-14 15:49:00,
2013-06-14 16:54:00,61.0,51.5,29.68,SE,131,12.7,12.7,71,0.00,CLR,,0.00,WeatherDisplay:10.37,2013-06-14 15:54:00,
2013-06-14 16:59:00,61.5,51.6,29.68,South,184,12.0,12.0,70,0.00,CLR,,0.00,WeatherDisplay:10.37,2013-06-14 15:59:00,
2013-06-14 17:04:00,60.4,52.8,29.69,SSW,205,16.1,16.1,76,0.00,CLR,,0.00,WeatherDisplay:10.37,2013-06-14 16:04:00,
2013-06-14 17:09:00,60.1,52.9,29.68,WSW,250,13.8,13.8,77,0.00,CLR,,0.00,WeatherDisplay:10.37,2013-06-14 16:09:00,
2013-06-14 17:14:00,59.9,53.0,29.68,WSW,244,14.0,14.0,78,0.00,CLR,,0.00,WeatherDisplay:10.37,2013-06-14 16:14:00,
2013-06-14 17:19:00,59.8,52.9,29.68,SW,233,11.5,11.5,78,0.00,CLR,,0.00,WeatherDisplay:10.37,2013-06-14 16:19:00,
2013-06-14 17:24:00,60.1,52.1,29.68,SSE,155,16.1,16.1,75,0.00,CLR,,0.00,WeatherDisplay:10.37,2013-06-14 16:24:00,
2013-06-14 17:29:00,60.6,51.5,29.69,South,187,14.0,14.0,72,0.00,CLR,,0.00,WeatherDisplay:10.37,2013-06-14 16:29:00,
2013-06-14 17:34:00,60.5,51.0,29.68,SSE,158,15.0,15.0,71,0.00,CLR,,0.00,WeatherDisplay:10.37,2013-06-14 16:34:00,
2013-06-14 17:39:00,60.5,51.0,29.68,South,187,17.3,17.3,71,0.00,CLR,,0.00,WeatherDisplay:10.37,2013-06-14 16:39:00,
2013-06-14 17:44:00,60.6,51.5,29.68,SE,146,5.8,5.8,72,0.00,CLR,,0.00,WeatherDisplay:10.37,2013-06-14 16:44:00,
2013-06-14 17:49:00,60.5,51.0,29.68,SSE,157,15.0,15.0,71,0.00,CLR,,0.00,WeatherDisplay:10.37,2013-06-14 16:49:00,
2013-06-14 17:54:00,60.4,51.3,29.68,SE,138,15.0,15.0,72,0.00,CLR,,0.00,WeatherDisplay:10.37,2013-06-14 16:54:00,
2013-06-14 17:59:00,60.3,51.6,29.68,SE,129,10.4,10.4,73,0.00,CLR,,0.00,WeatherDisplay:10.37,2013-06-14 16:59:00,
2013-06-14 18:04:00,60.2,51.1,29.67,SE,131,17.3,17.3,72,0.00,CLR,,0.00,WeatherDisplay:10.37,2013-06-14 17:04:00,
2013-06-14 18:09:00,60.2,51.5,29.68,SE,138,13.0,13.0,73,0.00,CLR,,0.00,WeatherDisplay:10.37,2013-06-14 17:09:00,
2013-06-14 18:14:00,60.0,51.3,29.67,South,189,13.8,13.8,73,0.00,CLR,,0.00,WeatherDisplay:10.37,2013-06-14 17:14:00,
2013-06-14 18:19:00,59.9,51.2,29.67,SSE,164,16.1,16.1,73,0.00,CLR,,0.00,WeatherDisplay:10.37,2013-06-14 17:19:00,
2013-06-14 18:24:00,59.8,51.5,29.67,SSW,195,15.0,15.0,74,0.00,CLR,,0.00,WeatherDisplay:10.37,2013-06-14 17:24:00,
2013-06-14 18:29:00,59.6,50.9,29.68,SSW,205,19.6,19.6,73,0.00,CLR,,0.00,WeatherDisplay:10.37,2013-06-14 17:29:00,
2013-06-14 18:34:00,59.6,50.6,29.68,SSE,152,12.7,12.7,72,0.00,CLR,,0.00,WeatherDisplay:10.37,2013-06-14 17:34:00,
2013-06-14 18:39:00,59.3,49.5,29.68,South,190,20.7,20.7,70,0.00,CLR,,0.00,WeatherDisplay:10.37,2013-06-14 17:39:00,
2013-06-14 18:44:00,59.2,49.4,29.68,South,174,16.1,16.1,70,0.00,CLR,,0.00,WeatherDisplay:10.37,2013-06-14 17:44:00,
2013-06-14 18:49:00,59.1,48.5,29.68,SW,216,19.6,19.6,68,0.00,CLR,,0.00,WeatherDisplay:10.37,2013-06-14 17:49:00,
2013-06-14 18:54:00,58.8,49.0,29.69,South,188,24.2,24.2,70,0.00,CLR,,0.00,WeatherDisplay:10.37,2013-06-14 17:54:00,
2013-06-14 18:59:00,58.4,49.4,29.68,SSW,209,18.4,18.4,72,0.00,CLR,,0.00,WeatherDisplay:10.37,2013-06-14 17:59:00,
2013-06-14 19:04:00,58.1,49.5,29.68,South,186,17.3,17.3,73,0.00,CLR,,0.00,WeatherDisplay:10.37,2013-06-14 18:04:00,
2013-06-14 19:09:00,58.1,49.5,29.68,SE,139,11.5,11.5,73,0.00,CLR,,0.00,WeatherDisplay:10.37,2013-06-14 18:09:00,
2013-06-14 19:14:00,58.1,49.1,29.68,SW,224,19.6,19.6,72,0.00,CLR,,0.00,WeatherDisplay:10.37,2013-06-14 18:14:00,
2013-06-14 19:19:00,58.1,48.7,29.68,SSE,168,19.6,19.6,71,0.00,CLR,,0.00,WeatherDisplay:10.37,2013-06-14 18:19:00,
2013-06-14 19:24:00,58.0,49.0,29.68,SE,126,13.8,13.8,72,0.00,CLR,,0.00,WeatherDisplay:10.37,2013-06-14 18:24:00,
2013-06-14 19:29:00,57.9,49.3,29.68,SSW,205,11.5,11.5,73,0.00,CLR,,0.00,WeatherDisplay:10.37,2013-06-14 18:29:00,
2013-06-14 19:34:00,57.7,49.5,29.68,South,173,19.6,19.6,74,0.00,CLR,,0.00,WeatherDisplay:10.37,2013-06-14 18:34:00,
2013-06-14 19:39:00,57.5,49.6,29.68,SSE,154,11.0,11.0,75,0.00,CLR,,0.00,WeatherDisplay:10.37,2013-06-14 18:39:00,
2013-06-14 19:44:00,57.3,49.4,29.68,SE,141,11.5,11.5,75,0.00,CLR,,0.00,WeatherDisplay:10.37,2013-06-14 18:44:00,
2013-06-14 19:49:00,57.1,49.2,29.68,South,171,11.5,11.5,75,0.00,CLR,,0.00,WeatherDisplay:10.37,2013-06-14 18:49:00,
2013-06-14 19:54:00,57.1,49.6,29.68,SSE,155,15.0,15.0,76,0.00,CLR,,0.00,WeatherDisplay:10.37,2013-06-14 18:54:00,
2013-06-14 19:59:00,57.0,49.9,29.68,SE,143,18.4,18.4,77,0.00,CLR,,0.00,WeatherDisplay:10.37,2013-06-14 18:59:00,
2013-06-14 20:04:00,56.7,49.2,29.67,SE,137,15.0,15.0,76,0.00,CLR,,0.00,WeatherDisplay:10.37,2013-06-14 19:04:00,
2013-06-14 20:09:00,56.6,48.8,29.67,SSE,159,16.1,16.1,75,0.00,CLR,,0.00,WeatherDisplay:10.37,2013-06-14 19:09:00,
2013-06-14 20:14:00,56.4,48.9,29.67,SSW,193,14.0,14.0,76,0.00,CLR,,0.00,WeatherDisplay:10.37,2013-06-14 19:14:00,
2013-06-14 20:19:00,56.3,48.5,29.67,SW,218,12.0,12.0,75,0.00,CLR,,0.00,WeatherDisplay:10.37,2013-06-14 19:19:00,
2013-06-14 20:24:00,56.2,49.1,29.67,SSE,162,9.2,9.2,77,0.00,CLR,,0.00,WeatherDisplay:10.37,2013-06-14 19:24:00,
2013-06-14 20:29:00,56.0,48.9,29.66,SSE,148,11.5,11.5,77,0.00,CLR,,0.00,WeatherDisplay:10.37,2013-06-14 19:29:00,
2013-06-14 20:34:00,56.0,49.2,29.66,SE,128,6.9,6.9,78,0.00,CLR,,0.00,WeatherDisplay:10.37,2013-06-14 19:34:00,
2013-06-14 20:39:00,55.9,49.1,29.66,SSE,155,8.1,8.1,78,0.00,CLR,,0.00,WeatherDisplay:10.37,2013-06-14 19:39:00,
2013-06-14 20:44:00,55.7,49.3,29.65,ESE,119,5.8,5.8,79,0.00,CLR,,0.00,WeatherDisplay:10.37,2013-06-14 19:44:00,
2013-06-14 20:49:00,55.7,49.6,29.65,ESE,108,6.9,6.9,80,0.00,CLR,,0.00,WeatherDisplay:10.37,2013-06-14 19:49:00,
2013-06-14 20:54:00,55.5,49.4,29.65,East,97,8.1,8.1,80,0.00,CLR,,0.00,WeatherDisplay:10.37,2013-06-14 19:54:00,
2013-06-14 20:59:00,55.5,49.4,29.65,SSE,150,4.6,4.6,80,0.00,CLR,,0.00,WeatherDisplay:10.37,2013-06-14 19:59:00,
2013-06-14 21:04:00,55.0,49.6,29.65,SW,224,15.0,15.0,82,0.00,CLR,,0.00,WeatherDisplay:10.37,2013-06-14 20:04:00,
2013-06-14 21:09:00,54.2,49.8,29.65,SW,219,8.0,8.0,85,0.00,CLR,,0.00,WeatherDisplay:10.37,2013-06-14 20:09:00,
2013-06-14 21:14:00,53.7,49.6,29.65,SSW,205,5.8,5.8,86,0.00,CLR,,0.00,WeatherDisplay:10.37,2013-06-14 20:14:00,
2013-06-14 21:19:00,53.4,49.6,29.64,SE,129,5.0,5.0,87,0.00,CLR,,0.00,WeatherDisplay:10.37,2013-06-14 20:19:00,
2013-06-14 21:24:00,53.2,49.7,29.64,SE,134,4.6,4.6,88,0.00,CLR,,0.00,WeatherDisplay:10.37,2013-06-14 20:24:00,
2013-06-14 21:29:00,53.3,49.8,29.64,ESE,110,9.2,9.2,88,0.00,CLR,,0.01,WeatherDisplay:10.37,2013-06-14 20:29:00,
2013-06-14 21:34:00,53.4,49.3,29.64,East,81,10.0,10.0,86,0.01,RA,,0.01,WeatherDisplay:10.37,2013-06-14 20:34:00,
2013-06-14 21:39:00,53.6,48.9,29.64,ESE,105,11.5,11.5,84,0.01,RA,,0.01,WeatherDisplay:10.37,2013-06-14 20:39:00,
2013-06-14 21:44:00,53.7,49.0,29.64,East,93,12.7,12.7,84,0.01,CLR,,0.01,WeatherDisplay:10.37,2013-06-14 20:44:00,
2013-06-14 21:49:00,53.7,49.0,29.63,ESE,103,12.7,12.7,84,0.01,CLR,,0.01,WeatherDisplay:10.37,2013-06-14 20:49:00,
2013-06-14 21:54:00,53.7,49.0,29.63,ESE,109,15.0,15.0,84,0.01,CLR,,0.01,WeatherDisplay:10.37,2013-06-14 20:54:00,
2013-06-14 21:59:00,53.9,48.2,29.64,ESE,116,13.8,13.8,81,0.01,CLR,,0.01,WeatherDisplay:10.37,2013-06-14 20:59:00,
2013-06-14 22:04:00,53.7,47.3,29.63,ESE,108,15.0,15.0,79,0.01,CLR,,0.01,WeatherDisplay:10.37,2013-06-14 21:04:00,
2013-06-14 22:09:00,53.6,47.6,29.63,East,99,16.1,16.1,80,0.01,CLR,,0.01,WeatherDisplay:10.37,2013-06-14 21:09:00,
2013-06-14 22:14:00,53.3,47.3,29.63,ESE,108,15.0,15.0,80,0.01,CLR,,0.01,WeatherDisplay:10.37,2013-06-14 21:14:00,
2013-06-14 22:19:00,53.0,47.3,29.63,ESE,109,15.0,15.0,81,0.01,CLR,,0.01,WeatherDisplay:10.37,2013-06-14 21:19:00,
2013-06-14 22:24:00,52.7,47.4,29.62,ENE,65,9.2,9.2,82,0.01,CLR,,0.01,WeatherDisplay:10.37,2013-06-14 21:24:00,
2013-06-14 22:29:00,52.5,47.5,29.62,ENE,71,8.1,8.1,83,0.01,CLR,,0.01,WeatherDisplay:10.37,2013-06-14 21:29:00,
2013-06-14 22:34:00,52.1,47.4,29.61,ENE,75,8.1,8.1,84,0.00,CLR,,0.01,WeatherDisplay:10.37,2013-06-14 21:34:00,
2013-06-14 22:39:00,51.8,47.4,29.61,ENE,65,9.2,9.2,85,0.00,CLR,,0.01,WeatherDisplay:10.37,2013-06-14 21:39:00,
2013-06-14 22:44:00,51.5,47.5,29.60,NE,54,9.2,9.2,86,0.00,CLR,,0.01,WeatherDisplay:10.37,2013-06-14 21:44:00,
2013-06-14 22:49:00,51.3,47.3,29.60,NE,47,8.1,8.1,86,0.00,CLR,,0.01,WeatherDisplay:10.37,2013-06-14 21:49:00,
2013-06-14 22:54:00,51.1,47.4,29.60,ENE,71,6.9,6.9,87,0.00,CLR,,0.01,WeatherDisplay:10.37,2013-06-14 21:54:00,
2013-06-14 22:59:00,51.0,47.3,29.60,East,91,8.1,8.1,87,0.00,CLR,,0.01,WeatherDisplay:10.37,2013-06-14 21:59:00,
2013-06-14 23:04:00,50.8,47.4,29.60,NE,39,6.0,6.0,88,0.01,RA,,0.02,WeatherDisplay:10.37,2013-06-14 22:04:00,
2013-06-14 23:09:00,50.8,47.7,29.59,ENE,72,9.2,9.2,89,0.01,RA,,0.02,WeatherDisplay:10.37,2013-06-14 22:09:00,
2013-06-14 23:14:00,50.6,47.5,29.59,NE,37,9.2,9.2,89,0.01,CLR,,0.02,WeatherDisplay:10.37,2013-06-14 22:14:00,
2013-06-14 23:19:00,50.6,47.5,29.58,NE,44,8.1,8.1,89,0.01,CLR,,0.02,WeatherDisplay:10.37,2013-06-14 22:19:00,
2013-06-14 23:24:00,50.6,47.5,29.58,NNE,32,8.1,8.1,89,0.02,RA,,0.02,WeatherDisplay:10.37,2013-06-14 22:24:00,
2013-06-14 23:29:00,50.5,47.4,29.58,East,85,11.5,11.5,89,0.02,RA,,0.03,WeatherDisplay:10.37,2013-06-14 22:29:00,
2013-06-14 23:34:00,50.4,47.6,29.57,NNE,27,11.5,11.5,90,0.02,RA,,0.03,WeatherDisplay:10.37,2013-06-14 22:34:00,
2013-06-14 23:39:00,50.3,47.5,29.57,NE,34,11.5,11.5,90,0.04,RA,,0.05,WeatherDisplay:10.37,2013-06-14 22:39:00,
2013-06-14 23:44:00,50.3,47.8,29.57,ENE,74,12.7,12.7,91,0.05,RA,,0.06,WeatherDisplay:10.37,2013-06-14 22:44:00,
2013-06-14 23:49:00,50.2,47.7,29.56,North,10,11.5,11.5,91,0.06,RA,,0.07,WeatherDisplay:10.37,2013-06-14 22:49:00,
2013-06-14 23:54:00,50.1,47.9,29.56,ENE,58,11.5,11.5,92,0.07,RA,,0.08,WeatherDisplay:10.37,2013-06-14 22:54:00,
2013-06-14 23:59:00,50.0,47.8,29.55,North,356,11.5,11.5,92,0.09,RA,,0.10,WeatherDisplay:10.37,2013-06-14 22:59:00,